Location: Table Rock
(44.3339°N, 118.3154°W)
Time: 04:45:58
(UTC-07:00)

Daily predictions for brighter satellites

Satellite Brightness Start Highest point End
(mag) Time Altitude Azimuth Time Altitude Azimuth Time Altitude Azimuth
Aureole 2 Rocket 4.3 00:02:47 10° NNE 00:05:09 20° ENE 00:05:16 20° ENE
Cosmos 1626 3.9 00:09:07 21° WSW 00:10:22 25° WNW 00:13:34 10° NNW
Terra 4.0 00:09:09 12° WSW 00:11:16 16° W 00:14:08 10° NW
In-Cosmos 22 Rocket 4.5 00:09:56 42° SE 00:11:28 56° E 00:17:06 10° NNE
Cosmos 44 Rocket 4.2 00:17:56 35° ESE 00:18:02 35° ESE 00:22:45 10° NE
CZ-4C R/B 3.1 00:18:22 72° WNW 00:18:22 72° WNW 00:21:42 10° NNW
BREEZE-M DEB (TANK) 2.9 00:19:50 38° ENE 00:19:50 38° ENE 00:22:54 10° ENE
SeaSat 1 2.9 00:18:03 40° SW 00:18:58 45° WSW 00:23:43 10° NW
Cosmos 1900 4.2 00:14:21 10° NW 00:19:21 82° WSW 00:20:22 57° SSE
Cosmos 1869 Rocket 3.6 00:18:55 56° SSW 00:19:46 75° W 00:24:17 10° N
ALOS 2 2.5 00:21:24 65° SSE 00:22:02 89° WSW 00:26:27 10° NNW
Coronas F rocket 4.3 00:24:35 12° ENE 00:24:35 12° ENE 00:24:56 10° NE
Cosmos 1733 Rocket 4.1 00:23:10 33° ESE 00:23:32 33° E 00:27:33 10° NNE
Cosmos 2227 Rocket 3.0 00:21:18 19° SW 00:25:07 48° WNW 00:30:37 10° NNE
NOSS 2-3 (C) 4.2 00:25:04 48° SE 00:25:35 50° ESE 00:31:02 10° NE
Lacrosse 4 Rocket 1.4 00:22:15 10° NNW 00:26:42 87° WSW 00:27:15 68° SSE
Cosmos 2333 Rocket 3.4 00:24:55 10° NW 00:29:43 28° WSW 00:31:11 25° SW
Cosmos 2263 Rocket 4.4 00:33:54 10° ESE 00:34:43 10° E 00:35:32 10° E
SL-16 R/B 2.3 00:30:22 10° NNW 00:35:59 63° WSW 00:37:24 47° SSW
ERBS 2.7 00:37:13 62° NNW 00:37:13 62° NNW 00:40:34 10° NE
Landsat 5 3.5 00:36:55 66° S 00:37:31 83° WSW 00:42:05 10° NNW
Cosmos 1356 Rocket 4.4 00:39:15 32° E 00:39:15 32° E 00:42:50 10° NNE
ASTEX 1 3.3 00:38:06 10° N 00:43:01 86° W 00:44:02 57° SSW
H-2A R/B 2.7 00:39:02 10° N 00:43:10 65° WNW 00:43:49 55° WSW
Cosmos 372 Rocket 3.9 00:42:07 51° SSW 00:43:29 88° WNW 00:48:46 10° NNE
Cosmos 158 Rocket 3.9 00:41:05 10° NNW 00:46:26 89° WSW 00:47:41 54° SSE
NOSS 2-3 (D) 3.9 00:45:42 56° S 00:46:39 70° ESE 00:52:20 10° NE
Cosmos 1238 Rocket 4.1 00:47:37 10° N 00:51:27 30° ENE 00:52:02 29° E
Nadezhda 3 Rocket 4.2 00:45:26 10° N 00:51:36 62° E 00:54:00 37° SE
Cosmos 2297 Rocket 3.2 00:49:17 20° WSW 00:52:47 42° WNW 00:58:09 10° NNE
Cosmos 1610 Rocket 4.4 00:51:25 45° S 00:53:28 83° E 00:59:37 10° N
Cosmos 2074 Rocket 4.1 00:51:28 39° SSW 00:53:53 70° W 01:00:12 10° N
CZ-2C R/B 3.9 00:52:39 30° SE 00:55:11 50° ENE 01:00:38 10° N
Okean 1-7 4.0 00:51:50 10° NNW 00:55:40 33° W 00:56:02 32° WSW
Cosmos 2219 Rocket 4.4 00:59:21 10° W 01:00:33 11° W 01:01:45 10° WSW
Meteor 2-6 Rocket 4.4 00:54:58 10° N 01:00:46 68° ENE 01:02:50 41° SSE
Cosmos 1943 4.3 00:56:15 10° NNW 01:01:36 39° ENE 01:05:21 18° ESE
Cosmos 1606 3.7 00:59:13 10° N 01:02:49 37° ENE 01:03:11 36° E
CZ-4C R/B 3.4 00:56:28 10° NNW 01:03:15 54° NE 01:10:46 10° ESE
CZ-2C R/B 2.6 00:58:44 10° NNE 01:03:59 68° ESE 01:05:09 51° SSE
Cosmos 389 Rocket 4.2 01:01:12 10° NW 01:03:46 24° W 01:03:46 24° W
Cosmos 2251 Rocket 3.4 01:00:08 10° NNW 01:05:30 81° WSW 01:06:46 53° S
COSMOS 2455 3.5 01:01:52 10° NW 01:07:21 37° WSW 01:08:21 35° SW
Meteor 2-10 Rocket 3.7 01:03:02 10° NNW 01:08:34 72° W 01:10:06 48° SSW
Cosmos 1603 3.6 01:03:48 10° NNW 01:09:30 85° WSW 01:11:15 47° SSE
Cosmos 1674 Rocket 3.4 01:06:02 10° N 01:10:29 88° W 01:11:00 70° S
Helios 1A Rocket 3.3 01:10:00 10° N 01:14:05 55° WNW 01:14:39 50° WSW
ATLAS 2AS CENTAUR R/B 3.7 01:07:20 10° WSW 01:14:43 51° NW 01:22:37 10° NNE
Geosat 4.2 01:10:41 10° NNE 01:15:41 65° WNW 01:17:25 39° SW
Cosmos 1975 Rocket 4.1 01:15:01 10° N 01:19:07 37° ENE 01:20:21 31° ESE
Cosmos 2154 Rocket 4.0 01:17:20 43° S 01:19:35 88° W 01:25:56 10° N
Cosmos 1892 3.3 01:21:53 46° W 01:21:58 46° WNW 01:25:39 10° N
Meteor 1-10 Rocket 4.4 01:17:00 10° NNW 01:22:54 68° W 01:24:42 45° SSW
BREEZE-M DEB (TANK) 4.4 01:06:50 10° WNW 01:23:33 84° SSW 01:28:06 10° ESE
CZ-4B R/B 3.7 01:25:15 16° W 01:25:15 16° W 01:26:59 10° NW
Cosmos 1908 Rocket 3.5 01:26:34 63° SE 01:27:04 72° E 01:31:25 10° NNE
Cosmos 921 Rocket 2.8 01:28:04 69° SE 01:28:22 73° ESE 01:32:33 10° NNE
Cosmos 1607 3.8 01:23:24 10° NW 01:29:35 90° NE 01:32:34 33° SSE
MOS 1-B Rocket 4.1 01:28:46 41° SSW 01:30:21 54° W 01:35:50 10° NNW
Cosmos 44 3.6 01:31:46 50° S 01:32:58 66° ESE 01:38:24 10° NE
Cosmos 1782 3.2 01:31:28 10° NNW 01:35:18 48° W 01:35:18 48° W
ATLAS 3B R/B 3.6 01:29:56 10° NW 01:35:40 29° WSW 01:36:39 27° SW
Cosmos 2084 Rocket 3.0 01:38:11 80° W 01:38:19 83° NW 01:42:08 10° NE
USA 238 DEB 3.8 01:31:33 10° NW 01:38:26 58° WSW 01:41:01 38° S
USA 238 3.8 01:31:39 10° NW 01:38:32 59° WSW 01:41:09 38° S
PSLV R/B 3.7 01:38:14 72° SSW 01:38:36 82° WSW 01:42:41 10° NNW
FALCON 9 R/B 4.4 01:36:10 10° W 01:39:07 15° WSW 01:39:07 15° WSW
Sich 1 Rocket 3.8 01:42:45 50° WSW 01:43:32 58° WNW 01:48:00 10° N
Cosmos 1340 Rocket 4.0 01:43:42 28° W 01:44:11 29° WNW 01:47:40 10° N
Cosmos 2341 Rocket 4.1 01:45:54 38° SSW 01:48:26 68° W 01:54:49 10° N
Cosmos 494 Rocket 4.3 01:43:51 10° NNW 01:48:55 49° WSW 01:49:54 44° SW
RESURS DK-1 4.0 01:50:29 22° ESE 01:50:57 22° ESE 01:54:12 10° NE
Cosmos 1825 2.0 01:52:05 79° S 01:52:19 87° E 01:56:08 10° N
Coronas F rocket 3.9 01:55:42 15° NW 01:55:42 15° NW 01:56:51 10° NNW
Cosmos 1408 2.5 01:58:48 74° SW 01:59:02 79° W 02:02:50 10° N
USA 234 3.2 01:55:58 10° SE 02:02:31 89° SW 02:09:05 10° NW
Cosmos 1959 Rocket 4.5 02:04:40 36° S 02:07:27 87° E 02:13:44 10° N
ATLAS 2A CENTAUR R/B 4.4 02:09:15 19° SSE 02:09:36 19° SSE 02:18:55 10° ESE
NOSS 3-2 (C) 4.0 02:04:47 10° NW 02:12:17 90° SW 02:20:21 10° SE
SL-8 Rocket 4.0 02:09:34 36° SSW 02:12:19 74° W 02:18:40 10° N
Cosmos 1378 Rocket 4.3 02:09:33 10° NNW 02:13:37 37° W 02:14:07 35° WSW
CENTAUR R/B 4.4 02:06:33 10° NNW 02:13:37 39° NE 02:21:12 10° ESE
Okean 3 3.9 02:12:11 10° NNW 02:16:18 45° W 02:16:55 42° WSW
Cosmos 2218 Rocket 4.0 02:13:33 35° SSW 02:16:22 82° W 02:22:45 10° N
Cosmos 2263 Rocket 2.2 02:15:21 38° S 02:17:37 75° ESE 02:23:19 10° NNE
Cosmos 1862 4.1 02:17:33 35° W 02:18:11 38° WNW 02:21:57 10° N
COSMOS 2406 4.3 02:15:31 10° NNW 02:21:03 44° ENE 02:26:31 10° SE
SL-08 R/B 3.9 02:20:41 20° SE 02:23:57 57° ENE 02:28:46 10° N
Okean 2 Rocket 3.4 02:24:54 40° SW 02:26:09 54° WNW 02:30:36 10° N
Meteor 1-14 Rocket 4.3 02:25:22 32° S 02:28:17 82° E 02:34:13 10° NNE
Cosmos 1371 Rocket 4.1 02:27:44 35° S 02:30:00 75° ESE 02:35:22 10° NNE
JB-3 4.2 02:27:31 10° N 02:31:25 84° W 02:32:20 50° SSW
Cosmos 2056 Rocket 3.9 02:29:03 31° S 02:31:26 57° ESE 02:36:36 10° NNE
Cosmos 2366 rocket 4.0 02:31:13 32° SSW 02:34:10 70° W 02:40:22 10° N
CZ-2C R/B 4.5 02:33:44 24° WSW 02:35:13 26° W 02:39:57 10° NW
Cosmos 1782 Rocket 4.5 02:34:18 30° WSW 02:35:29 35° WNW 02:39:32 10° N
NOSS 3-4 (A) 3.5 02:32:22 30° SW 02:35:49 85° NW 02:42:28 10° NE
NOSS 3-4 (C) 3.5 02:32:28 30° SW 02:35:55 86° NW 02:42:34 10° NE
NOSS 3-2 (A) 4.1 02:29:47 10° NW 02:37:07 58° WSW 02:43:37 16° SSE
Cosmos 407 Rocket 4.0 02:35:23 10° NNW 02:40:29 57° ENE 02:45:35 10° SE
Meteor 2-19 Rocket 4.4 02:37:52 29° S 02:41:16 89° E 02:47:30 10° N
AQUA 4.1 02:37:49 10° NNE 02:42:33 60° E 02:44:57 28° S
SL-27 R/B 4.0 02:40:36 10° N 02:44:01 36° ENE 02:47:26 10° SE
Landsat 4 3.9 02:43:57 44° SW 02:44:37 50° W 02:48:20 10° NNW
Cosmos 1943 4.0 02:40:30 10° NW 02:45:33 34° WSW 02:47:08 29° SW
IRS-P3 4.1 02:41:25 10° NNE 02:46:49 88° WNW 02:49:36 30° SSW
USA 161 3.5 02:47:20 15° ESE 02:49:03 26° ENE 02:51:34 10° NNE
CZ-4C R/B 3.3 02:45:12 10° NW 02:51:50 41° WSW 02:56:17 22° S
Cosmos 1727 Rocket 4.3 02:46:49 10° NNW 02:52:50 52° W 02:56:06 26° SSW
PSLV R/B 4.3 02:50:38 10° N 02:54:35 39° WNW 02:56:09 28° WSW
Cosmos 1242 Rocket 2.8 02:51:27 10° NNW 02:54:49 46° W 02:55:23 42° SW
Meteor 1-18 Rocket 4.2 02:49:51 10° NNW 02:55:30 80° W 02:59:24 21° S
Cosmos 1867 3.8 02:55:55 10° NW 03:01:09 47° WSW 03:04:27 21° S
Resurs 1-4 Rocket 3.6 02:57:46 10° NE 03:02:24 30° E 03:06:59 10° SSE
Cosmos 1300 Rocket 3.7 03:00:49 25° S 03:03:15 68° E 03:07:35 10° NNE
Cosmos 1536 Rocket 4.0 03:04:38 10° NNW 03:08:49 45° W 03:10:38 28° SSW
CBERS 1 LM4 rocket 4.4 03:06:43 10° NNE 03:11:45 85° ESE 03:14:49 23° SSW
Cosmos 1954 Rocket 4.3 03:09:30 10° NNW 03:14:41 66° ENE 03:19:48 10° SSE
Cosmos 1624 Rocket 4.3 03:13:21 24° SW 03:16:22 55° WNW 03:21:32 10° NNE
EO 1 Del DPAF 4.4 03:13:08 10° SE 03:16:51 45° ENE 03:20:35 10° N
Cosmos 909 Rocket 4.3 03:12:57 22° SW 03:17:22 77° NW 03:24:55 10° NNE
Okean 1 3.3 03:17:43 10° NNW 03:21:41 63° W 03:24:05 22° S
Abrixas rocket 2.2 03:21:09 31° SW 03:22:36 72° SSE 03:25:58 10° ENE
Cosmos 1812 3.0 03:19:10 10° NNW 03:22:58 51° W 03:24:58 25° SSW
Meteor 1-11 Rocket 4.3 03:17:39 12° S 03:23:03 58° E 03:28:55 10° NNE
NPP 4.1 03:21:08 10° N 03:26:19 48° WNW 03:29:51 20° SW
Okean 1-7 Rocket 3.6 03:22:04 10° NNW 03:26:38 73° W 03:30:19 16° S
ERS-2 2.8 03:23:49 10° N 03:27:20 41° WNW 03:29:10 23° SW
Meteor 1-13 Rocket 4.3 03:21:40 10° N 03:27:21 86° ENE 03:33:08 10° S
RESURS DK-1 3.4 03:26:24 19° WSW 03:28:49 36° WNW 03:32:41 10° NNE
ADEOS 3.6 03:24:00 10° N 03:29:14 75° WNW 03:33:05 19° SSW
Cosmos 1934 Rocket 4.0 03:24:15 14° S 03:29:43 83° E 03:35:54 10° N
Iridium 4 Rocket 4.5 03:25:57 10° NNW 03:29:47 27° W 03:32:07 19° SW
Meteor 1-20 Rocket 4.4 03:26:05 20° SSW 03:30:10 62° WNW 03:35:56 10° N
COSMOS 2487 4.0 03:28:52 10° N 03:32:17 38° ENE 03:35:41 10° SE
ARIANE 5 R/B 2.6 03:29:38 10° NNE 03:34:40 75° ESE 03:39:00 14° S
Cosmos 1452 Rocket 3.5 03:33:40 18° SSW 03:37:37 88° WNW 03:42:54 10° NNE
SL-16 R/B 2.6 03:31:53 10° SSE 03:38:08 89° ENE 03:44:24 10° NNW
Okean O Rocket 3.6 03:36:08 10° NE 03:39:40 24° E 03:43:10 10° SSE
Okean 1 Rocket 3.3 03:37:38 20° SSW 03:40:34 54° WNW 03:44:58 10° N
SME Rocket 3.0 03:40:13 10° SSE 03:43:56 76° ENE 03:48:03 10° NNW
Cosmos 489 Rocket 4.5 03:37:54 10° NNW 03:44:06 68° WSW 03:50:15 10° S
USA 234 4.1 03:40:46 10° S 03:46:03 26° SW 03:51:22 10° WNW
GP-B 4.1 03:45:10 10° NNW 03:49:08 32° W 03:52:01 16° SW
Cosmos 1420 Rocket 4.4 03:45:42 11° S 03:50:43 64° ESE 03:55:59 10° NNE
CZ-2D R/B 2.3 03:45:58 10° NNE 03:51:25 78° ESE 03:56:54 10° S
Okean 2 4.4 03:48:13 10° N 03:52:12 48° ENE 03:56:10 10° SSE
TIMED 4.5 03:49:25 16° SSW 03:52:57 83° WNW 03:57:20 10° NNE
Cosmos 1023 Rocket 4.4 03:50:53 10° NNW 03:56:00 82° WSW 04:01:04 10° SSE
CZ-2D R/B 4.4 03:52:24 10° NNE 03:56:13 43° E 04:00:04 10° S
Cosmos 1844 Rocket 2.8 03:54:52 14° SSW 03:59:48 75° WNW 04:05:30 10° NNE
Cosmos 1605 Rocket 4.0 03:53:46 10° S 03:59:55 83° W 04:06:13 10° N
Cosmos 2123 Rocket 4.1 03:55:03 10° NNW 04:01:18 63° W 04:07:31 10° S
BREEZE-M DEB (TANK) 3.7 03:54:42 10° W 04:01:23 41° NNW 04:04:02 10° ENE
Cosmos 1821 Rocket 4.4 03:55:57 13° SSW 04:01:26 50° WNW 04:07:40 10° N
Cosmos 1844 3.8 03:56:10 12° SSW 04:01:27 85° ESE 04:07:15 10° NNE
Cosmos 2263 Rocket 4.0 03:57:58 10° W 04:02:11 21° NW 04:06:24 10° N
Tiangong 1 2.6 04:03:40 16° SW 04:04:31 17° SSW 04:06:38 10° SSE
CENTAUR R/B 3.1 03:57:08 10° NW 04:04:53 67° WSW 04:13:05 10° SSE
COSMOS 2406 4.0 04:00:12 10° NW 04:05:11 31° WSW 04:10:08 10° SSW
Cosmos 1461 4.0 04:02:48 10° S 04:07:18 46° ESE 04:11:45 10° NE
Cosmos 1455 Rocket 3.7 04:03:11 10° S 04:07:33 57° E 04:11:56 10° NNE
Meteor 2-15 Rocket 4.5 04:02:44 10° NNW 04:08:52 67° W 04:14:56 10° S
Cosmos 1602 4.2 04:06:05 13° SSW 04:09:21 44° WNW 04:13:04 10° N
UNK 4.1 04:09:45 10° S 04:14:10 46° W 04:18:39 10° NNW
Cosmos 1025 Rocket 3.4 04:10:18 10° NNW 04:14:25 46° W 04:18:31 10° SSW
Cosmos 1140 Rocket 3.6 04:10:31 10° NNW 04:15:32 55° WSW 04:20:32 10° S
Cosmos 2278 Rocket 2.4 04:10:51 10° SSW 04:16:30 77° ESE 04:22:12 10° NNE
SL-27 R/B 4.4 04:16:47 10° WNW 04:19:00 15° W 04:21:10 10° SW
Cosmos 1850 Rocket 4.0 04:14:01 10° NNW 04:19:13 68° WSW 04:24:26 10° S
USA 161 3.7 04:18:32 10° WSW 04:19:35 12° W 04:20:40 10° WNW
Cosmos 1536 3.2 04:15:48 10° SSW 04:19:46 50° WNW 04:23:45 10° N
Cosmos 1741 Rocket 4.0 04:14:34 10° NNW 04:19:50 70° WSW 04:25:03 10° S
MOZ.5/SAFIR/RUBIN 5/SL-8 4.4 04:15:19 10° SSE 04:20:01 62° ENE 04:24:46 10° N
BREEZE-M DEB (TANK) 3.8 04:18:47 10° S 04:20:49 18° SE 04:23:03 10° E
ATLAS 5 CENTAUR R/B 2.6 04:20:16 10° NW 04:26:14 83° NE 04:32:37 10° SE
UNKNOWN OBJECT B 3.2 04:25:13 10° N 04:29:13 55° WNW 04:33:13 10° SSW
CZ-4B R/B 3.7 04:24:29 10° NNE 04:30:09 65° ESE 04:35:46 10° S
Meteor 2-4 Rocket 3.9 04:26:51 10° NNW 04:32:06 51° W 04:37:14 10° SSW
Cosmos 1544 Rocket 3.8 04:28:29 10° SSW 04:32:50 55° WNW 04:37:11 10° N
PSLV R/B 4.0 04:28:58 10° NNE 04:33:10 87° ESE 04:37:18 10° SSW
Cosmos 2082 Rocket 3.0 04:27:46 10° NNW 04:33:28 60° ENE 04:39:05 10° SE
NOSS 2-2 (D) 3.7 04:30:55 10° SW 04:35:06 73° NW 04:40:05 10° NE
IRS-1D 4.4 04:31:55 10° N 04:36:30 34° WNW 04:40:59 10° SW
Cosmos 2173 Rocket 4.2 04:32:05 10° S 04:38:10 79° E 04:44:20 10° N
